Theta_e
352 348 350 350 347 348 349 351 350 349 350 351 353 351 350 352 355 356 358 359 361 362 361 361 361 361 360 360 361 361 361 362 361 360 358 357 357 355 355 357 357 357 357 358 357 356 356 355 355 357 357 358 360 360 361 361 360 360 358 358 358 358 358
353 349 349 349 348 349 351 350 351 349 349 351 353 352 350 353 355 356 358 359 360 361 361 361 360 361 360 359 361 361 361 360 360 360 359 358 357 356 356 358 358 358 357 356 357 357 356 356 356 356 357 358 359 361 361 361 360 360 359 357 357 357 357
356 353 349 349 348 349 350 349 349 350 349 351 354 352 351 352 353 356 358 359 360 361 361 361 361 360 361 361 360 360 360 359 359 359 358 358 358 358 358 358 358 358 358 357 357 358 358 358 358 357 359 359 359 361 362 361 361 360 359 358 357 358 358
357 354 351 350 350 350 350 349 349 350 349 350 353 352 351 352 353 356 358 358 360 361 361 361 361 361 360 361 361 360 360 360 359 358 358 358 359 358 358 358 357 357 358 358 357 357 357 359 359 360 361 360 359 361 361 361 361 360 360 360 358 358 359
355 355 354 352 351 350 348 348 348 349 350 350 351 351 352 353 352 353 356 357 359 359 360 359 359 359 359 361 361 359 360 360 359 358 356 357 356 357 358 358 357 356 357 358 357 355 356 358 360 361 362 361 361 362 361 361 361 359 360 361 360 360 361
356 358 358 354 351 348 347 347 348 350 350 350 352 352 351 351 352 353 354 355 357 358 358 357 356 358 359 360 359 358 359 360 359 358 356 355 354 355 358 358 356 356 357 357 357 356 357 357 358 359 361 361 361 361 361 361 361 360 360 360 359 359 359
358 358 359 358 353 348 348 348 347 349 350 350 351 350 350 350 351 352 352 353 353 355 356 355 354 356 357 358 357 357 358 359 359 359 357 357 355 354 357 357 355 356 357 358 357 357 358 358 357 358 359 358 358 359 359 360 360 359 360 360 359 359 359
359 359 361 361 354 347 347 348 348 349 349 350 352 351 352 352 350 351 351 350 351 352 353 353 353 354 355 356 355 356 357 358 359 359 358 358 358 356 357 357 357 356 356 356 357 358 357 357 358 358 358 358 356 356 357 358 358 359 359 360 361 360 360
357 360 364 363 359 354 350 348 348 349 349 351 352 352 353 352 352 352 350 350 350 351 352 352 351 353 355 354 354 354 356 357 356 358 357 357 357 357 356 357 357 357 356 356 357 358 357 356 356 357 358 357 355 356 357 358 359 359 360 360 361 362 359
357 360 362 361 363 364 361 353 348 349 353 354 354 351 349 349 352 352 351 350 351 350 351 350 350 352 353 354 353 353 354 355 355 355 355 355 356 357 356 356 357 357 357 356 356 356 357 356 356 357 358 357 357 357 358 360 360 358 358 359 360 361 361
363 364 362 360 362 368 370 366 361 357 355 356 356 351 347 348 350 351 349 349 351 351 351 350 349 352 353 352 353 353 352 353 353 353 353 354 354 355 355 354 355 356 356 355 355 355 356 356 357 358 359 358 359 359 359 361 361 358 357 358 359 360 361
362 364 362 362 364 366 370 371 367 363 358 358 360 354 348 348 350 350 350 350 353 353 352 351 351 352 354 353 354 353 352 352 352 352 352 352 352 352 352 353 353 355 355 355 355 354 355 356 357 359 361 359 359 361 360 360 362 360 359 357 359 360 359
356 356 358 360 361 360 365 368 367 364 360 356 356 353 350 350 350 351 350 352 354 354 354 355 353 353 353 354 354 354 352 352 351 351 350 350 349 349 349 351 351 353 354 354 354 353 354 355 355 357 360 360 358 360 361 361 362 362 361 361 360 360 359
352 352 353 356 357 355 358 362 364 364 361 354 350 351 352 352 352 351 349 351 356 357 358 360 358 357 356 355 356 356 353 352 351 350 349 348 349 347 347 348 348 349 350 351 351 351 352 354 354 354 357 360 359 358 359 361 361 362 362 363 362 360 360
352 351 351 352 354 354 354 357 360 360 359 356 352 351 350 350 352 352 350 353 356 356 355 358 360 360 358 357 357 356 354 353 352 351 349 347 348 347 346 346 346 346 347 348 349 350 349 350 351 352 354 356 357 357 357 359 361 362 361 362 362 362 360
351 350 349 349 351 355 356 358 359 358 357 357 356 353 350 349 352 353 353 356 357 355 356 358 358 358 356 355 355 355 355 355 353 353 352 351 351 350 349 347 345 345 346 346 347 346 347 346 348 348 349 351 354 356 356 356 357 359 359 360 360 361 360
351 350 350 348 349 353 356 359 359 359 357 357 359 358 354 355 357 357 356 357 355 356 358 358 357 357 355 354 354 354 353 353 354 356 357 357 358 357 355 352 351 352 352 349 349 349 348 348 346 347 347 348 349 351 353 353 351 352 355 356 357 358 356
352 350 351 350 349 350 352 353 354 355 356 357 359 358 356 356 357 358 358 356 354 357 358 356 354 354 353 354 355 354 353 354 354 352 352 354 357 359 358 357 357 357 354 351 351 351 351 351 350 351 350 350 348 349 350 351 350 350 351 353 355 357 356
349 347 347 347 347 346 346 345 345 347 348 351 353 354 354 354 355 356 357 356 356 356 356 354 354 354 352 352 353 351 350 352 354 352 350 352 355 358 359 359 359 358 355 352 353 352 353 352 350 351 351 351 350 351 351 350 350 350 350 352 354 356 357
345 344 344 343 342 342 341 341 342 342 342 343 344 347 348 350 350 351 353 354 355 355 354 354 354 353 350 349 350 350 349 350 353 353 353 352 353 356 357 358 358 356 355 354 354 355 355 353 352 351 352 352 351 353 353 351 351 351 352 353 354 354 355
343 343 342 340 340 339 339 340 340 339 339 339 339 342 344 345 345 347 347 349 351 351 352 352 352 350 348 347 349 350 350 350 351 353 354 353 352 352 353 355 355 355 354 354 353 354 355 355 354 354 353 353 352 352 352 352 352 352 352 352 353 353 353
342 341 340 340 339 339 339 338 337 337 337 337 337 339 340 341 342 343 344 344 345 345 346 348 348 347 347 347 348 349 349 349 350 351 351 351 351 350 350 352 354 353 353 353 351 351 353 354 354 353 352 352 352 350 349 351 351 352 352 353 352 352 353
340 339 340 340 338 338 338 337 337 337 336 336 336 337 337 338 339 340 340 340 340 340 342 344 344 345 345 345 346 347 348 348 348 349 349 348 349 348 349 350 351 351 351 351 350 349 350 351 351 351 350 350 351 348 346 346 349 350 351 351 352 352 353
340 340 339 339 338 338 337 337 337 336 335 336 335 335 336 337 337 337 337 337 337 338 339 340 341 342 343 343 344 345 347 347 347 348 348 347 348 348 349 348 348 347 348 347 347 347 346 346 347 347 348 347 347 346 344 344 346 348 348 349 350 351 351
339 339 339 338 338 337 336 336 336 335 336 335 334 334 335 335 336 336 336 336 336 336 337 338 340 341 341 342 342 343 344 345 346 346 346 347 346 346 346 346 344 344 344 344 345 345 343 344 345 346 345 344 344 344 342 342 342 343 344 345 346 348 349
337 337 336 336 336 335 334 334 334 334 335 335 335 335 334 334 335 335 335 336 336 336 336 336 336 337 338 340 341 341 342 343 343 343 342 343 343 343 342 342 341 341 341 341 341 341 342 343 344 343 342 340 340 339 338 337 337 337 338 340 342 346 347
333 333 333 334 333 333 331 332 332 332 332 333 334 335 335 335 335 334 334 334 334 335 335 333 331 332 334 336 337 337 337 337 336 335 334 334 336 336 335 335 335 335 335 335 336 337 339 341 342 341 338 336 335 335 334 334 333 334 334 335 337 341 343
330 331 332 332 331 329 328 328 329 329 330 331 332 333 334 335 334 333 333 333 333 334 334 333 333 334 335 336 335 334 333 330 327 327 327 328 329 330 330 330 329 328 328 328 327 330 333 335 336 337 336 333 332 332 331 331 331 331 331 331 332 333 336
329 330 330 328 327 327 327 328 327 327 327 328 329 331 333 334 334 333 333 332 332 333 333 334 335 335 336 336 337 337 335 332 327 326 328 330 330 330 332 333 332 331 330 329 328 329 330 331 333 336 336 333 332 332 331 330 330 330 329 329 329 328 329
330 329 327 326 326 327 327 328 328 328 328 328 329 330 331 332 333 332 332 331 331 332 332 333 333 334 334 335 335 336 335 335 332 330 331 332 332 331 332 333 334 334 334 334 335 334 334 334 335 337 337 336 335 334 332 332 330 329 329 329 329 328 326
328 327 326 326 327 328 328 328 329 329 329 329 329 328 327 328 329 329 329 329 330 331 332 332 332 333 333 333 333 333 333 334 334 334 333 333 334 333 332 332 333 333 333 334 334 333 333 333 333 335 336 337 336 335 334 333 332 330 331 331 330 329 326
327 326 326 327 327 327 328 328 327 328 328 328 328 328 328 327 326 327 327 327 328 329 328 330 331 331 332 332 332 332 332 332 332 333 332 332 333 332 332 332 332 332 333 333 332 329 329 329 330 331 331 332 335 336 335 334 334 332 331 331 330 328 326
327 326 327 327 326 326 326 325 325 326 325 326 326 326 327 326 326 326 326 327 327 327 326 328 329 330 330 331 331 331 331 331 331 332 331 330 330 331 331 332 331 331 332 333 332 331 330 329 329 330 329 328 329 333 334 333 332 330 328 326 325 325 324
329 328 327 327 327 326 326 326 326 326 326 325 325 325 325 325 326 327 328 328 327 328 328 328 328 328 329 329 330 331 331 330 330 329 328 329 331 330 330 331 331 330 329 330 330 330 331 330 328 329 330 330 329 331 332 329 326 325 324 322 320 319 319
329 327 327 328 328 328 327 327 327 327 327 326 325 325 325 325 326 327 329 329 329 329 330 329 328 328 328 328 328 329 328 327 329 329 327 328 329 328 327 329 330 328 326 325 326 327 328 327 326 326 327 328 328 329 329 326 323 322 321 320 318 317 317
329 328 328 329 329 328 328 327 327 327 326 325 325 325 325 325 325 326 327 328 328 329 328 329 328 328 327 327 326 326 326 326 328 330 329 328 327 325 324 324 325 326 324 323 322 322 323 324 324 322 321 322 325 326 325 323 322 321 320 319 318 318 317
330 329 328 329 329 328 327 327 327 327 326 325 324 324 324 325 326 326 327 327 328 327 327 327 328 328 327 328 327 327 328 327 326 328 329 329 328 327 325 323 322 322 321 321 318 318 318 319 321 321 320 320 324 325 323 321 320 320 320 319 319 318 318
331 329 327 328 329 328 327 327 327 327 326 325 324 324 323 322 323 325 327 328 328 328 328 328 328 328 327 327 326 326 327 328 326 326 327 327 327 327 327 327 325 323 322 322 320 320 319 319 320 321 321 321 322 323 321 321 321 320 320 320 319 319 319
Wind_Speed
8 12 11 9 11 12 12 15 17 17 18 19 18 18 19 19 19 21 22 21 21 20 20 19 18 18 17 15 15 14 14 14 14 14 13 13 13 13 13 12 12 12 11 11 10 11 11 10 11 10 10 9 8 7 7 6 6 5 5 5 4 4 3
8 10 12 11 11 11 12 16 17 18 19 19 19 18 18 20 20 20 22 22 21 21 19 20 20 19 17 16 15 15 14 14 13 13 13 13 13 13 12 12 12 11 11 11 10 10 10 10 11 11 10 10 9 8 8 7 7 6 6 7 5 5 5
6 7 10 11 11 10 12 16 17 18 19 19 20 19 18 21 21 21 23 22 22 21 20 20 20 19 18 17 16 16 15 14 13 13 12 13 13 13 12 12 12 11 11 12 11 11 10 10 11 11 10 10 9 9 9 8 8 8 7 7 6 6 6
7 7 9 10 11 11 12 16 17 18 20 20 20 18 19 22 21 22 23 22 22 22 21 20 19 19 18 17 17 16 15 15 14 13 12 12 11 12 12 11 11 11 11 12 12 11 11 11 11 11 11 11 10 10 10 9 9 8 8 8 7 7 7
10 8 9 10 11 11 12 16 18 19 19 20 21 19 19 21 20 20 22 22 23 22 21 21 19 19 19 17 16 16 16 15 14 14 13 13 12 12 12 11 11 12 12 11 12 12 12 12 12 12 11 11 10 10 10 10 9 9 9 9 8 8 7
9 7 7 9 11 11 12 16 19 18 18 20 22 21 20 21 20 19 21 21 22 22 21 21 20 19 19 17 16 16 16 16 15 14 13 13 13 13 13 12 12 12 12 11 12 13 13 12 12 12 12 11 11 11 11 11 10 10 10 10 9 9 8
9 8 6 6 9 11 12 16 18 19 17 16 20 21 21 22 21 20 20 20 21 22 21 21 20 20 19 17 16 16 16 16 15 14 14 13 13 13 13 12 12 12 12 11 12 12 12 12 12 12 12 11 11 11 11 11 11 10 11 11 10 10 8
9 9 5 4 7 11 13 15 16 18 16 11 14 17 16 17 19 19 20 19 20 22 23 21 20 20 20 18 17 16 16 16 15 14 14 13 13 13 12 12 12 13 12 12 12 12 12 12 12 12 12 11 11 11 11 12 11 10 11 11 10 10 9
10 8 3 2 4 7 10 14 16 19 16 12 15 16 12 11 12 14 18 19 20 22 22 21 19 19 20 19 17 17 15 15 15 14 14 14 13 12 12 12 12 12 12 12 12 12 12 11 11 12 12 11 11 11 11 12 12 11 10 11 11 10 10
10 8 5 1 3 1 3 9 14 16 14 12 14 15 12 11 10 9 10 13 18 21 20 19 19 20 21 19 17 17 16 15 15 15 15 14 13 13 13 13 13 13 12 12 12 12 12 12 11 11 11 11 11 11 11 11 11 11 10 11 11 10 10
5 6 6 5 2 2 4 4 6 10 13 11 11 13 12 12 12 12 9 12 15 21 19 18 18 19 21 20 16 16 16 15 15 15 15 15 14 15 15 13 13 13 13 12 11 10 11 11 11 11 12 11 10 11 11 11 10 11 11 10 10 10 10
2 4 4 5 3 2 4 6 4 7 12 12 10 12 13 12 11 12 11 16 16 20 19 18 18 18 19 19 17 16 16 16 15 15 15 15 14 14 14 14 13 13 13 12 10 10 11 11 11 11 12 12 11 11 11 11 11 11 11 10 10 10 10
5 3 3 3 3 1 2 7 8 7 7 10 12 13 13 12 13 12 12 18 18 19 16 15 17 18 17 17 16 15 15 14 15 15 14 14 14 13 12 14 14 14 13 12 11 11 11 11 10 10 11 11 10 10 11 11 11 11 11 11 9 9 10
8 6 4 3 3 0 1 4 8 8 8 8 10 11 8 7 10 12 16 17 10 9 8 9 10 13 15 15 15 15 15 14 13 14 14 13 13 13 12 11 12 13 12 11 11 11 11 11 10 8 9 11 10 10 10 12 12 11 11 11 10 9 9
10 10 7 4 4 4 2 0 5 7 9 8 9 9 8 9 14 16 16 10 7 7 8 8 5 4 5 7 8 10 13 15 13 11 12 12 13 13 13 12 11 11 11 11 11 10 10 10 10 9 10 11 10 9 9 10 12 12 11 11 11 10 9
9 9 8 6 4 4 4 3 4 6 8 7 7 10 12 16 17 13 10 9 8 8 11 10 7 5 2 4 7 6 6 10 12 11 9 9 8 9 11 11 10 10 9 10 10 10 10 9 10 11 12 12 11 11 10 10 11 12 12 12 13 11 10
9 8 9 8 6 4 3 4 5 6 8 7 6 7 9 10 8 9 12 13 12 10 9 11 12 11 6 5 5 5 6 10 9 5 3 3 1 3 5 4 4 4 3 3 5 6 7 8 8 8 9 10 11 10 10 10 11 13 15 15 15 13 11
10 8 8 7 6 4 3 5 5 4 5 7 7 7 7 8 11 12 13 14 14 11 10 10 10 9 9 7 4 6 5 5 7 7 5 3 2 1 3 4 4 5 4 3 4 5 7 7 5 5 6 7 7 4 3 7 8 10 14 16 17 16 14
10 9 8 7 8 8 7 8 9 10 10 8 7 8 8 9 11 11 10 12 14 12 12 12 10 9 12 10 4 3 4 4 4 4 4 1 1 0 3 4 3 4 3 4 5 4 5 6 4 3 5 6 6 7 4 1 3 5 9 12 15 16 16
8 8 8 7 7 8 8 9 10 11 11 11 10 10 9 9 10 10 10 13 16 15 15 15 11 10 12 12 8 6 4 3 5 5 4 5 5 5 2 3 1 1 0 2 4 5 5 4 3 4 6 5 3 4 4 3 1 2 5 8 10 12 13
8 8 8 7 7 7 9 10 10 10 11 10 10 9 9 9 9 11 11 12 14 14 14 15 14 14 15 12 10 10 8 5 3 3 4 5 6 7 4 0 1 0 0 2 3 3 3 3 3 4 5 4 2 2 2 3 2 2 3 5 7 8 8
8 8 8 9 9 9 10 11 10 10 10 9 9 9 9 9 10 12 13 12 12 13 13 15 15 16 16 14 11 10 10 9 6 5 5 4 4 1 4 3 3 3 2 2 2 1 0 1 2 3 2 1 3 3 3 3 3 3 4 4 6 6 5
11 11 12 13 14 14 14 14 13 13 12 12 11 10 10 10 11 13 13 12 13 15 17 17 16 15 16 16 14 11 11 10 9 7 7 6 5 4 1 3 6 6 4 5 4 4 4 4 4 5 4 3 5 6 5 4 4 4 5 6 6 6 5
14 15 16 17 17 17 17 17 16 16 15 16 15 13 13 15 17 17 16 14 15 18 19 17 15 14 14 16 15 13 12 12 12 11 11 10 10 8 7 7 8 8 8 7 8 8 7 7 7 7 6 5 6 7 6 5 4 5 6 7 7 6 5
16 17 18 19 18 19 19 19 19 18 17 17 16 14 15 17 19 20 20 17 18 20 20 18 16 16 16 15 15 14 14 14 15 15 15 14 13 11 10 10 10 10 10 9 9 9 9 9 10 11 9 7 4 3 3 4 4 4 5 5 4 4 4
16 16 17 18 19 18 18 18 18 18 18 17 17 15 15 16 18 19 19 18 18 18 18 18 17 18 18 17 15 15 15 16 17 17 16 15 15 14 13 13 12 12 13 13 13 13 11 11 12 13 11 9 7 6 6 7 8 8 7 6 4 3 5
16 17 17 17 17 16 16 16 16 17 17 16 16 15 15 15 16 17 17 17 18 16 15 17 17 17 17 18 18 18 18 19 20 20 19 17 18 18 16 14 14 14 14 15 16 16 13 11 12 13 12 11 11 10 9 10 10 10 10 10 8 6 5
17 17 16 15 15 15 15 15 16 16 15 15 14 14 14 15 15 15 14 15 16 14 13 14 14 14 14 15 16 17 18 19 19 18 18 17 17 17 16 14 12 13 14 14 15 16 13 11 11 11 10 10 10 10 10 10 10 11 11 11 10 9 8
16 15 15 15 14 14 14 15 15 15 14 13 13 12 12 13 14 14 13 13 13 11 11 11 11 11 12 12 12 12 14 15 16 15 15 14 14 14 14 12 12 12 13 12 12 13 13 11 10 9 9 9 9 8 8 10 10 10 11 12 11 10 8
15 15 15 15 15 14 14 15 15 15 14 13 12 11 10 11 12 12 12 11 10 10 10 10 10 10 9 9 11 11 11 12 12 12 12 12 12 13 12 11 11 10 9 8 7 7 8 8 7 8 9 9 8 7 7 8 10 11 10 11 13 12 9
16 16 16 16 15 15 15 15 15 14 14 13 12 11 10 9 10 11 10 9 8 8 9 9 9 9 8 8 9 10 10 9 9 8 8 8 8 9 8 8 9 8 6 5 5 5 6 5 4 5 7 7 6 5 4 5 7 10 10 8 11 14 11
16 16 17 16 15 15 15 14 14 14 13 12 11 10 10 9 9 9 9 7 7 7 8 8 8 8 8 8 8 8 8 8 7 6 5 5 5 5 5 5 6 6 4 5 6 6 6 5 6 6 5 4 5 6 4 4 5 7 8 6 8 11 10
16 16 16 15 15 14 14 13 13 13 13 12 10 10 9 9 8 8 7 7 7 7 8 8 7 7 7 7 7 6 6 7 7 6 4 3 4 5 5 5 5 5 5 7 8 6 5 4 5 5 2 2 3 4 4 8 9 8 6 5 5 6 7
15 15 15 14 14 13 13 13 12 12 12 11 10 9 9 8 8 7 6 7 8 7 7 7 6 6 6 6 6 6 5 6 6 5 5 3 4 5 7 9 9 8 9 10 9 8 8 8 8 8 7 5 5 6 7 10 9 7 5 5 6 6 7
16 15 14 13 13 13 13 13 12 12 11 10 9 8 8 8 7 7 7 7 8 7 7 7 7 6 6 6 5 5 5 4 4 3 4 4 3 4 6 9 10 9 9 9 8 7 8 8 8 10 10 8 8 9 10 9 7 7 7 7 7 7 7
16 15 14 13 13 13 13 13 13 12 11 10 9 8 8 7 7 6 6 7 7 7 7 7 7 6 6 5 5 5 4 4 3 2 4 5 5 4 5 6 7 6 6 6 6 4 3 3 4 6 7 6 6 6 7 6 6 6 6 7 6 6 6
11 12 12 12 13 13 13 12 13 13 12 10 9 8 8 7 7 6 6 6 6 7 7 7 6 6 5 5 6 5 4 3 4 3 4 6 6 5 5 5 5 4 3 4 4 4 4 3 3 4 5 4 4 4 5 5 5 4 5 5 5 5 5
8 10 11 11 12 14 14 12 12 12 12 11 10 9 8 8 7 7 6 6 6 6 6 5 5 5 6 6 6 5 5 5 5 3 2 4 4 3 3 3 2 1 1 1 2 2 2 3 3 3 4 3 2 3 4 5 5 4 5 5 5 5 4
Wind_Direction
213 188 179 182 182 177 175 176 175 172 168 162 166 178 172 163 163 159 160 165 163 165 167 168 170 170 172 171 167 169 168 166 167 168 170 173 177 178 180 185 185 187 189 191 197 196 195 196 190 190 193 192 196 195 196 197 187 180 186 194 180 165 183
217 192 180 181 183 180 172 177 179 171 172 170 168 181 174 161 166 163 161 167 167 168 170 169 172 173 172 172 169 171 172 169 171 172 173 176 178 177 182 188 185 188 192 189 193 195 194 197 192 192 195 192 196 198 196 196 190 187 196 200 193 191 201
211 195 188 184 179 181 174 178 183 175 176 175 171 180 172 161 169 166 162 169 168 170 173 171 173 174 172 173 171 173 174 172 175 176 176 178 178 179 186 190 185 188 194 190 189 190 191 196 193 193 196 193 197 199 195 199 195 192 202 200 196 207 207
204 197 194 190 180 181 179 182 188 181 180 179 174 181 175 167 170 166 166 173 170 172 175 174 175 175 175 175 172 175 177 177 179 179 179 179 181 185 186 186 186 186 191 191 192 192 191 194 193 195 199 196 199 199 195 201 199 197 206 202 199 216 216
197 194 190 190 184 183 182 186 190 185 183 178 173 184 182 172 174 171 170 174 173 175 176 175 177 175 176 178 175 177 180 181 183 183 186 185 185 190 187 187 190 189 191 190 190 194 192 192 194 195 199 198 199 201 198 201 202 200 206 206 205 217 223
188 187 189 186 183 186 188 189 187 185 187 178 172 181 184 178 181 178 173 175 175 177 177 178 179 176 178 181 180 181 180 184 186 185 190 189 184 191 193 192 195 192 193 193 192 193 191 193 196 195 197 200 201 204 201 201 203 201 205 209 210 216 227
181 181 194 192 182 186 193 190 183 183 190 179 171 181 186 184 187 183 178 178 176 177 179 181 180 176 179 184 184 183 181 185 187 185 189 188 184 193 196 194 197 196 194 193 193 193 191 196 199 196 198 202 204 206 205 204 205 204 206 210 214 218 226
176 173 186 205 187 187 195 189 179 183 189 173 170 186 188 182 188 189 184 181 178 177 179 183 183 177 178 184 185 184 184 186 188 189 191 190 189 195 196 194 196 199 199 197 196 197 197 198 200 200 201 204 206 207 208 207 206 209 209 210 217 221 221
175 161 146 256 224 196 192 186 180 181 178 163 173 191 189 175 183 193 190 185 180 178 178 182 185 179 178 184 185 185 187 188 188 193 196 197 197 197 197 197 198 199 201 200 195 196 201 200 199 201 204 208 209 207 206 204 204 211 215 214 220 223 225
173 156 136 221 283 333 150 177 185 178 160 150 167 185 192 186 180 179 194 199 185 177 180 184 184 180 178 183 186 185 189 191 191 194 197 199 203 202 201 201 199 200 207 208 200 195 201 202 200 200 200 208 213 208 206 203 203 213 220 220 221 224 233
159 141 140 166 204 33 72 116 176 161 145 144 158 173 183 185 177 165 194 233 204 177 181 186 181 178 177 181 189 189 189 194 196 197 198 201 204 204 202 202 200 201 209 215 210 201 198 199 202 203 200 205 213 210 208 209 208 215 223 225 224 225 233
146 119 141 152 134 96 85 74 68 119 138 140 140 159 172 177 181 175 201 236 211 177 182 188 179 178 176 179 190 195 194 196 199 202 203 204 207 205 202 202 201 202 208 215 215 209 204 202 203 204 203 208 216 214 213 218 219 220 225 229 230 229 232
158 147 182 157 100 44 85 93 74 67 113 133 133 150 168 180 189 193 223 233 206 177 181 185 178 182 181 181 191 199 201 200 198 205 208 207 210 210 206 204 202 201 205 211 217 213 205 203 206 208 210 215 222 222 218 220 225 227 227 230 234 237 235
154 169 195 172 130 184 318 94 94 73 81 123 148 152 158 180 191 207 231 230 195 150 157 161 169 184 185 188 195 198 204 208 206 208 210 209 212 215 216 213 209 207 207 210 220 222 210 204 208 213 215 219 225 230 227 225 229 232 233 234 238 243 244
162 165 172 196 179 178 243 47 108 100 97 125 163 157 161 203 206 205 211 196 114 105 150 155 142 147 168 199 212 207 207 212 217 218 216 214 211 212 219 225 221 215 215 214 216 224 223 212 205 211 223 227 226 229 230 229 231 232 234 238 240 243 251
155 153 158 185 199 181 195 181 136 125 118 132 159 159 176 203 205 190 169 141 120 136 165 173 152 126 153 254 272 280 259 238 228 219 216 222 219 214 219 229 235 229 226 225 223 231 240 230 214 218 226 224 222 229 232 232 240 241 236 235 237 238 246
146 155 161 175 198 214 204 160 143 149 149 153 162 156 165 178 160 123 120 132 137 142 171 184 165 153 177 229 250 259 288 304 295 267 235 233 275 274 235 229 277 298 298 277 268 278 280 265 249 253 250 232 231 235 222 214 233 240 232 231 235 235 239
126 133 137 143 151 142 90 77 78 84 116 147 158 150 138 125 111 105 109 121 134 156 184 178 154 156 178 188 194 198 221 292 339 360 337 252 186 262 227 208 284 313 327 307 296 326 335 320 296 307 316 295 288 300 170 186 213 223 220 225 230 229 230
102 105 108 105 106 102 81 71 67 59 60 72 88 102 112 110 106 103 100 108 127 153 165 151 147 170 171 162 161 176 193 198 156 90 24 339 161 131 170 181 257 288 282 276 269 277 319 333 325 318 326 324 339 14 47 143 229 223 217 221 225 226 228
99 103 110 106 100 95 85 84 81 72 68 64 63 76 92 95 95 97 100 111 120 129 139 143 153 162 145 130 130 148 164 181 168 155 129 96 60 41 99 155 136 23 163 267 273 262 261 268 268 285 301 309 346 17 18 5 339 254 231 224 226 230 233
109 116 119 116 109 102 98 98 91 80 75 69 66 78 85 90 99 102 100 108 113 115 123 130 136 138 131 121 130 152 161 145 124 133 140 125 87 45 23 108 149 60 257 221 249 263 259 248 255 293 312 323 32 45 353 342 339 282 257 239 236 240 246
118 119 119 116 113 109 107 105 99 90 86 81 81 88 88 90 106 109 105 105 105 101 103 107 114 122 119 114 123 143 151 148 136 102 82 107 137 60 348 9 68 48 32 121 170 224 29 2 344 3 358 22 71 56 8 346 334 309 301 279 262 257 260
119 118 117 114 111 111 110 106 102 98 95 93 91 92 96 101 108 107 101 98 97 98 98 96 98 106 108 108 113 125 134 136 133 117 95 93 125 151 117 68 80 76 83 95 87 82 86 78 62 56 63 89 81 60 33 9 353 334 327 318 302 289 280
119 117 114 112 111 111 110 107 105 103 101 99 98 96 100 106 108 102 94 92 97 100 100 97 96 99 102 106 111 118 127 126 119 115 111 107 117 129 125 105 90 82 87 88 81 83 89 84 75 71 83 102 88 65 41 15 358 341 333 330 325 319 316
125 122 118 115 113 110 110 109 108 107 104 102 101 98 97 100 102 98 93 93 95 95 93 91 93 95 96 101 108 111 114 117 115 111 107 107 111 115 113 106 96 87 89 91 86 85 91 96 93 90 99 121 128 86 48 34 26 12 4 358 348 6 31
124 122 118 115 113 111 112 113 111 108 105 104 103 100 96 93 93 93 94 95 92 91 92 91 91 92 93 97 104 109 111 114 111 105 102 103 105 105 103 101 99 97 96 95 90 82 79 86 93 94 98 105 110 103 85 70 60 51 45 40 38 65 69
115 114 114 115 118 117 113 109 106 104 104 106 107 105 100 94 89 88 92 95 93 90 94 97 96 93 92 95 102 107 107 104 100 96 95 96 99 102 100 94 94 98 96 94 93 91 87 86 88 87 82 79 82 84 77 67 60 54 52 53 54 61 65
113 112 113 112 112 111 109 107 105 102 101 103 105 103 100 95 91 88 87 89 93 95 96 96 97 97 97 99 103 103 96 91 90 91 91 90 91 95 95 87 83 89 91 89 92 98 103 103 97 92 90 85 80 72 66 63 60 56 54 53 52 53 60
115 115 114 111 110 110 111 109 105 100 96 95 95 96 96 94 92 92 87 82 87 95 96 94 98 102 103 104 105 101 93 86 84 86 93 99 100 100 100 96 88 88 91 91 93 97 101 107 115 122 119 107 94 84 77 72 66 62 59 54 48 45 51
124 122 117 112 109 106 102 98 95 93 91 90 90 91 93 94 93 93 89 85 87 91 95 99 103 103 102 102 99 96 93 90 86 85 91 97 100 101 103 103 100 95 91 93 95 97 102 111 127 139 137 127 118 104 87 79 73 65 60 56 49 40 36
123 117 112 107 104 101 99 97 96 94 92 89 90 92 94 98 101 99 97 97 98 98 99 104 107 107 106 103 99 97 97 99 98 98 98 96 97 99 99 105 109 103 98 109 110 105 107 102 96 118 132 139 145 133 102 91 86 69 59 52 47 42 38
112 110 107 106 104 103 103 103 101 100 99 97 95 98 100 101 104 107 110 116 116 114 112 108 106 110 111 110 110 109 109 113 114 111 109 107 108 109 109 123 129 123 129 144 130 114 115 105 87 94 103 106 132 153 159 153 125 87 72 67 57 50 44
108 109 108 108 108 108 108 108 105 103 103 101 99 100 103 104 108 115 127 131 125 123 123 116 109 110 112 115 120 119 117 119 119 120 122 108 97 102 95 93 109 110 97 102 104 97 102 107 95 90 90 107 136 158 145 130 129 121 106 87 60 45 26
105 108 111 112 114 113 111 109 108 105 102 98 99 102 104 106 111 117 125 128 124 122 122 121 119 119 118 118 117 110 102 105 119 139 148 114 72 84 87 83 92 100 90 83 83 75 70 73 69 55 48 53 63 67 87 102 104 99 87 56 28 18 11
116 120 122 124 123 121 120 118 117 115 110 106 103 104 103 103 105 106 107 111 118 123 122 121 122 123 122 119 112 105 105 116 130 145 145 133 106 82 82 82 87 92 86 79 79 76 72 69 61 52 49 47 49 60 75 81 68 56 53 40 22 16 15
129 132 132 132 129 126 127 128 127 123 120 118 116 112 109 107 107 111 113 114 121 127 126 125 127 128 129 126 118 114 126 145 141 71 72 108 121 102 86 88 89 86 76 61 50 45 46 39 33 35 34 31 35 46 58 63 54 39 31 25 18 14 14
138 138 139 139 136 133 132 133 133 131 127 126 127 125 122 118 113 112 115 119 126 132 133 136 140 138 133 125 115 102 86 107 129 102 56 70 88 96 99 96 84 71 58 36 21 12 355 336 334 343 356 14 31 21 11 17 24 17 8 6 7 7 6
158 151 150 150 145 140 140 140 138 137 134 134 135 133 130 127 125 124 124 124 128 134 138 142 138 120 107 108 112 98 68 72 98 108 72 65 76 95 112 111 102 96 80 46 50 50 19 342 321 312 319 336 343 329 327 332 337 343 344 344 344 344 342